Helena, Arkansas, United States (72342)
Lat: 34.53N, Lon: 90.59W
Wx Zone: ARZ058
Local Info
Past Weather Observations for Sunday, December 14, 2014

NOTE: This archive is for the closest National Weather Service station to Helena. Information may differ from the station used for current weather conditions.

Click here for Long-term Archive

Time Weather Temperature Dewpoint Humidity Pressure Winds Precip Visibility
23:55
Clear
50°F / 10°C 46°F / 8°C 88% 30.01 in
(1016 mb)
SE 9.2 mph
(SE 15 kph)
- 10SM
23:35
Clear
50°F / 10°C 46°F / 8°C 88% 30.04 in
(1017 mb)
SE 9.2 mph
(SE 15 kph)
- 10SM
23:15
Clear
50°F / 10°C 46°F / 8°C 88% 30.04 in
(1017 mb)
SE 9.2 mph
(SE 15 kph)
- 10SM
22:55
Clear
50°F / 10°C 46°F / 8°C 88% 30.04 in
(1017 mb)
SE 10.4 mph
(SE 17 kph)
- 10SM
22:35
Clear
50°F / 10°C 46°F / 8°C 88% 30.04 in
(1017 mb)
SE 10.4 mph
(SE 17 kph)
- 10SM
22:15
Clear
50°F / 10°C 46°F / 8°C 88% 30.04 in
(1017 mb)
SE 11.5 mph
(SE 19 kph)
- 10SM
21:55
Clear
50°F / 10°C 46°F / 8°C 88% 30.06 in
(1018 mb)
SE 10.4 mph
(SE 17 kph)
- 10SM
21:35
Clear
52°F / 11°C 46°F / 8°C 82% 30.06 in
(1018 mb)
SE 9.2 mph
(SE 15 kph)
- 10SM
21:15
Clear
52°F / 11°C 46°F / 8°C 82% 30.06 in
(1018 mb)
SE 8.1 mph
(SE 13 kph)
- 10SM
20:55
Clear
52°F / 11°C 46°F / 8°C 82% 30.06 in
(1018 mb)
SE 9.2 mph
(SE 15 kph)
- 10SM
20:35
Clear
52°F / 11°C 46°F / 8°C 82% 30.09 in
(1019 mb)
SE 9.2 mph
(SE 15 kph)
- 10SM
20:15
Clear
52°F / 11°C 46°F / 8°C 82% 30.06 in
(1018 mb)
SE 9.2 mph
(SE 15 kph)
- 10SM
19:55
Clear
52°F / 11°C 48°F / 9°C 88% 30.06 in
(1018 mb)
SE 9.2 mph
(SE 15 kph)
- 10SM
19:35
Clear
54°F / 12°C 48°F / 9°C 82% 30.06 in
(1018 mb)
ESE 10.4 mph
(ESE 17 kph)
- 10SM
19:15
Clear
54°F / 12°C 48°F / 9°C 82% 30.06 in
(1018 mb)
ESE 10.4 mph
(ESE 17 kph)
- 10SM
18:55
Clear
54°F / 12°C 48°F / 9°C 82% 30.06 in
(1018 mb)
ESE 8.1 mph
(ESE 13 kph)
- 10SM
18:35
Clear
55°F / 13°C 48°F / 9°C 77% 30.06 in
(1018 mb)
SE 11.5 mph
(SE 19 kph)
- 10SM
18:15
Clear
54°F / 12°C 48°F / 9°C 82% 30.06 in
(1018 mb)
ESE 6.9 mph
(ESE 11 kph)
- 10SM
17:55
Clear
54°F / 12°C 48°F / 9°C 82% 30.06 in
(1018 mb)
SE 6.9 mph
(SE 11 kph)
- 10SM
17:35
Clear
55°F / 13°C 48°F / 9°C 77% 30.06 in
(1018 mb)
SSE 4.6 mph
(SSE 7 kph)
- 10SM
17:15
Clear
57°F / 14°C 50°F / 10°C 77% 30.06 in
(1018 mb)
S 3.5 mph
(S 6 kph)
- 10SM
16:55
Clear
59°F / 15°C 50°F / 10°C 72% 30.06 in
(1018 mb)
SSE 4.6 mph
(SSE 7 kph)
- 10SM
16:35
Clear
57°F / 14°C 50°F / 10°C 77% 30.06 in
(1018 mb)
SSE 4.6 mph
(SSE 7 kph)
- 10SM
16:15
Clear
61°F / 16°C 50°F / 10°C 68% 30.06 in
(1018 mb)
S 4.6 mph
(S 7 kph)
- 10SM
15:55
Clear
63°F / 17°C 50°F / 10°C 64% 30.06 in
(1018 mb)
S 5.8 mph
(S 9 kph)
- 10SM
15:35
Clear
63°F / 17°C 50°F / 10°C 64% 30.06 in
(1018 mb)
S 6.9 mph
(S 11 kph)
- 10SM
15:15
Clear
63°F / 17°C 50°F / 10°C 64% 30.06 in
(1018 mb)
SSE 6.9 mph
(SSE 11 kph)
- 10SM
14:55
Clear
63°F / 17°C 50°F / 10°C 64% 30.09 in
(1019 mb)
SSE 6.9 mph
(SSE 11 kph)
- 10SM
14:35
Clear
63°F / 17°C 50°F / 10°C 64% 30.09 in
(1019 mb)
SE 8.1 mph
(SE 13 kph)
- 10SM
14:15
Clear
63°F / 17°C 50°F / 10°C 64% 30.09 in
(1019 mb)
SE 9.2 mph
(SE 15 kph)
- 10SM
13:55
Clear
63°F / 17°C 50°F / 10°C 64% 30.09 in
(1019 mb)
SE 6.9 mph
(SE 11 kph)
- 10SM
13:35
Clear
63°F / 17°C 50°F / 10°C 64% 30.09 in
(1019 mb)
SE 8.1 mph
(SE 13 kph)
- 10SM
13:15
Clear
63°F / 17°C 50°F / 10°C 64% 30.12 in
(1020 mb)
SSE 5.8 mph
(SSE 9 kph)
- 10SM
12:55
Clear
63°F / 17°C 50°F / 10°C 64% 30.12 in
(1020 mb)
S 6.9 mph
(S 11 kph)
- 10SM
12:35
Clear
61°F / 16°C 50°F / 10°C 68% 30.15 in
(1021 mb)
S 9.2 mph
(S 15 kph)
- 10SM
12:15
Clear
61°F / 16°C 50°F / 10°C 68% 30.15 in
(1021 mb)
S 6.9 mph
(S 11 kph)
- 10SM
11:55
Clear
61°F / 16°C 50°F / 10°C 68% 30.15 in
(1021 mb)
SSE 8.1 mph
(SSE 13 kph)
- 10SM
11:35
Clear
59°F / 15°C 50°F / 10°C 72% 30.18 in
(1022 mb)
S 8.1 mph
(S 13 kph)
- 10SM
11:15
Clear
59°F / 15°C 50°F / 10°C 72% 30.18 in
(1022 mb)
SE 6.9 mph
(SE 11 kph)
- 10SM
10:55
Clear
59°F / 15°C 50°F / 10°C 72% 30.18 in
(1022 mb)
SE 6.9 mph
(SE 11 kph)
- 10SM
10:35
Clear
55°F / 13°C 48°F / 9°C 77% 30.21 in
(1023 mb)
SSE 8.1 mph
(SSE 13 kph)
- 10SM
10:15
Clear
54°F / 12°C 46°F / 8°C 77% 30.21 in
(1023 mb)
SSE 5.8 mph
(SSE 9 kph)
- 10SM
09:55
Clear
52°F / 11°C 46°F / 8°C 82% 30.21 in
(1023 mb)
SSE 5.8 mph
(SSE 9 kph)
- 10SM
09:35
Clear
52°F / 11°C 45°F / 7°C 77% 30.21 in
(1023 mb)
SSE 5.8 mph
(SSE 9 kph)
- 10SM
09:15
Clear
50°F / 10°C 45°F / 7°C 82% 30.21 in
(1023 mb)
SE 6.9 mph
(SE 11 kph)
- 10SM
08:55
Clear
48°F / 9°C 43°F / 6°C 82% 30.21 in
(1023 mb)
SE 4.6 mph
(SE 7 kph)
- 10SM
08:35
Clear
46°F / 8°C 43°F / 6°C 87% 30.21 in
(1023 mb)
Calm - 7SM
08:15
Clear
45°F / 7°C 43°F / 6°C 93% 30.21 in
(1023 mb)
Calm - 10SM
07:55
Clear
43°F / 6°C 41°F / 5°C 93% 30.21 in
(1023 mb)
Calm - 10SM
07:35
Clear
43°F / 6°C 41°F / 5°C 93% 30.18 in
(1022 mb)
Calm - 10SM
07:15
Clear
43°F / 6°C 41°F / 5°C 93% 30.18 in
(1022 mb)
ESE 3.5 mph
(ESE 6 kph)
- 10SM
06:55
Clear
41°F / 5°C 39°F / 4°C 93% 30.18 in
(1022 mb)
E 5.8 mph
(E 9 kph)
- 10SM
06:35
Clear
43°F / 6°C 41°F / 5°C 93% 30.18 in
(1022 mb)
E 4.6 mph
(E 7 kph)
- 10SM
06:15
Clear
41°F / 5°C 39°F / 4°C 93% 30.18 in
(1022 mb)
ESE 3.5 mph
(ESE 6 kph)
- 10SM
05:55
Clear
41°F / 5°C 37°F / 3°C 87% 30.18 in
(1022 mb)
ESE 3.5 mph
(ESE 6 kph)
- 7SM
05:35
Clear
41°F / 5°C 39°F / 4°C 93% 30.18 in
(1022 mb)
ESE 3.5 mph
(ESE 6 kph)
- 10SM
05:15
Clear
41°F / 5°C 37°F / 3°C 87% 30.18 in
(1022 mb)
E 4.6 mph
(E 7 kph)
- 10SM
04:55
Clear
43°F / 6°C 41°F / 5°C 93% 30.18 in
(1022 mb)
ESE 3.5 mph
(ESE 6 kph)
- 10SM
04:35
Clear
43°F / 6°C 39°F / 4°C 87% 30.18 in
(1022 mb)
Calm - 10SM
04:15
Clear
43°F / 6°C 41°F / 5°C 93% 30.15 in
(1021 mb)
S 5.8 mph
(S 9 kph)
- 10SM
03:55
Partly Cloudy
45°F / 7°C 41°F / 5°C 87% 30.18 in
(1022 mb)
SSE 3.5 mph
(SSE 6 kph)
- 10SM
03:35
Overcast
45°F / 7°C 41°F / 5°C 87% 30.18 in
(1022 mb)
Calm - 10SM
03:15
Overcast
46°F / 8°C 43°F / 6°C 87% 30.18 in
(1022 mb)
S 3.5 mph
(S 6 kph)
- 10SM
02:55
Overcast
46°F / 8°C 43°F / 6°C 87% 30.18 in
(1022 mb)
S 3.5 mph
(S 6 kph)
- 10SM
02:35
Overcast
46°F / 8°C 43°F / 6°C 87% 30.18 in
(1022 mb)
SW 4.6 mph
(SW 7 kph)
- 10SM
02:15
Overcast
46°F / 8°C 41°F / 5°C 82% 30.21 in
(1023 mb)
Calm - 10SM
01:55
Overcast
46°F / 8°C 41°F / 5°C 82% 30.18 in
(1022 mb)
Calm - 10SM
01:35
Overcast
46°F / 8°C 43°F / 6°C 87% 30.21 in
(1023 mb)
Calm - 10SM
01:15
Overcast
46°F / 8°C 43°F / 6°C 87% 30.21 in
(1023 mb)
SSE 4.6 mph
(SSE 7 kph)
- 10SM
00:55
Overcast
46°F / 8°C 43°F / 6°C 87% 30.21 in
(1023 mb)
Calm - 10SM
00:35
Overcast
46°F / 8°C 41°F / 5°C 82% 30.21 in
(1023 mb)
SE 3.5 mph
(SE 6 kph)
- 10SM
00:15
Overcast
46°F / 8°C 43°F / 6°C 87% 30.21 in
(1023 mb)
Calm - 10SM
Time Weather Temperature Dewpoint Humidity Pressure Winds Precip Visibility


Weather for websites

WeatherForYou.com, LLC is not responsible for any damages or problems caused by this service. Current weather conditions are obtained from the closest station including government and personal stations which may have varying degrees of accuracy. Weather forecasts are derived from the NOAA NDFD. Like all things, this site belongs to Jesus Christ... He just trusts me to maintain it. If you have any questions or comments email webmaster@weatherforyou.com

Copyright © 2014, WeatherForYou.com LLC. All rights reserved.